Tracking 18987 objects as of 25-Feb-2018
HD Live streaming from Space Station
objects crossing your sky now

TIANYI 2 (TY 2)

Track TIANYI 2 (TY 2) now!
10-day predictions


NORAD ID: 43155
Int'l Code: 2018-008A
Perigee: 529.6 km
Apogee: 554.9 km
Inclination: 97.5 °
Period: 95.3 minutes
Semi major axis: 6913 km
RCS: Unknown
Launch date: January 19, 2018
Source: People's Republic of China (PRC)
Launch site: Jiuquan Satellite Launch Center, China (JSC)
aabbcc
Your satellite tracking list
Your tracking list is empty




NASA's NSSDC Master Catalog

Two Line Element Set (TLE):
1 43155U 18008A   18056.46442223  .00000979  00000-0  63386-4 0  9997
2 43155  97.5348 132.7965 0018335 164.8077 260.3532 15.10359941  5624
Source of the keplerian elements: AFSPC